EWG5MA EDLV-LOWI

Flight info

Callsign EWG5MA
Flight time 0h 59m
Altitude 23000
Route VEBAK2R VEBAK DCT NVO Q760 ROPUV/N0416F350 L607 XEBIX XEBIX1B
Aircraft A20N/M-SDE2E3FGHIRWXY/LB1

Departure

Time 2026-05-05 08:14
Airport Weeze (Niederrhein) Airport (EDLV)

Arrival

Time 2026-05-05 09:13
Airport Innsbruck Airport (LOWI)
Time Latitude Longitude Altitude Speed Heading
2026-05-05 07:58 51.59959 6.14660 114 ft 0 kts 92°
2026-05-05 08:02 51.59960 6.14640 114 ft 2 kts 92°
2026-05-05 08:02 51.59960 6.14613 113 ft 2 kts 94°
2026-05-05 08:02 51.59963 6.14587 110 ft 2 kts 151°
2026-05-05 08:02 51.59979 6.14584 110 ft 2 kts 182°
2026-05-05 08:03 51.59995 6.14586 114 ft 2 kts 184°
2026-05-05 08:03 51.60012 6.14588 114 ft 2 kts 183°
2026-05-05 08:03 51.60028 6.14588 114 ft 2 kts 204°
2026-05-05 08:03 51.60040 6.14606 111 ft 2 kts 243°
2026-05-05 08:04 51.60046 6.14630 111 ft 2 kts 259°
2026-05-05 08:04 51.60047 6.14644 111 ft 0 kts 269°
2026-05-05 08:05 51.60047 6.14637 111 ft 2 kts 269°
2026-05-05 08:05 51.60047 6.14590 112 ft 6 kts 267°
2026-05-05 08:05 51.60046 6.14517 114 ft 7 kts 271°
2026-05-05 08:06 51.60048 6.14427 114 ft 9 kts 272°
2026-05-05 08:06 51.60050 6.14323 114 ft 11 kts 272°
2026-05-05 08:06 51.60053 6.14183 114 ft 15 kts 271°
2026-05-05 08:06 51.60057 6.13990 114 ft 19 kts 272°
2026-05-05 08:07 51.60063 6.13762 114 ft 21 kts 272°
2026-05-05 08:07 51.60068 6.13522 111 ft 22 kts 273°
2026-05-05 08:07 51.60074 6.13277 114 ft 22 kts 272°
2026-05-05 08:07 51.60078 6.13028 110 ft 23 kts 270°
2026-05-05 08:08 51.60084 6.12779 111 ft 23 kts 273°
2026-05-05 08:08 51.60088 6.12551 114 ft 17 kts 272°
2026-05-05 08:08 51.60118 6.12458 114 ft 8 kts 352°
2026-05-05 08:08 51.60181 6.12459 113 ft 10 kts
2026-05-05 08:09 51.60255 6.12463 113 ft 7 kts
2026-05-05 08:09 51.60282 6.12496 112 ft 6 kts 76°
2026-05-05 08:09 51.60279 6.12685 112 ft 44 kts 91°
2026-05-05 08:09 51.60276 6.12826 112 ft 0 kts 92°
2026-05-05 08:10 51.60275 6.12836 113 ft 3 kts 92°
2026-05-05 08:10 51.60273 6.12903 113 ft 9 kts 92°
2026-05-05 08:10 51.60223 6.12956 112 ft 11 kts 181°
2026-05-05 08:10 51.60135 6.12952 111 ft 13 kts 182°
2026-05-05 08:11 51.60086 6.12934 111 ft 6 kts 237°
2026-05-05 08:11 51.60082 6.12845 111 ft 10 kts 271°
2026-05-05 08:11 51.60085 6.12726 111 ft 9 kts 272°
2026-05-05 08:11 51.60086 6.12661 111 ft 3 kts 272°
2026-05-05 08:12 51.60086 6.12629 113 ft 6 kts 272°
2026-05-05 08:12 51.60088 6.12527 114 ft 12 kts 272°
2026-05-05 08:12 51.60128 6.12457 112 ft 9 kts
2026-05-05 08:12 51.60206 6.12460 113 ft 13 kts
2026-05-05 08:13 51.60272 6.12464 113 ft 4 kts
2026-05-05 08:13 51.60281 6.12498 111 ft 6 kts 92°
2026-05-05 08:13 51.60274 6.12942 113 ft 83 kts 92°
2026-05-05 08:13 51.60240 6.14311 134 ft 155 kts 90°
2026-05-05 08:14 51.60190 6.16102 901 ft 158 kts 89°
2026-05-05 08:14 51.60155 6.17842 1831 ft 161 kts 88°
2026-05-05 08:14 51.60125 6.19759 2429 ft 182 kts 90°
2026-05-05 08:14 51.60084 6.21927 2927 ft 208 kts 91°
2026-05-05 08:15 51.60028 6.24392 3532 ft 232 kts 91°
2026-05-05 08:15 51.59962 6.27096 4195 ft 253 kts 92°
2026-05-05 08:15 51.59887 6.29999 4776 ft 265 kts 95°
2026-05-05 08:15 51.59322 6.32805 5281 ft 269 kts 123°
2026-05-05 08:16 51.58022 6.34886 6371 ft 269 kts 141°
2026-05-05 08:16 51.57043 6.36119 7037 ft 272 kts 142°
2026-05-05 08:16 51.56717 6.36522 7232 ft 274 kts 142°
2026-05-05 08:16 51.55414 6.38119 8066 ft 278 kts 142°
2026-05-05 08:17 51.54392 6.39372 8729 ft 281 kts 142°
2026-05-05 08:17 51.52828 6.41299 9736 ft 285 kts 141°
2026-05-05 08:17 51.51236 6.43276 10469 ft 299 kts 141°
2026-05-05 08:17 51.49526 6.45410 10847 ft 323 kts 141°
2026-05-05 08:18 51.47699 6.47694 11321 ft 341 kts 141°
2026-05-05 08:18 51.45807 6.50054 12155 ft 346 kts 141°
2026-05-05 08:18 51.43893 6.52438 13016 ft 351 kts 141°
2026-05-05 08:18 51.41942 6.54862 13842 ft 359 kts 141°
2026-05-05 08:19 51.39959 6.57325 14665 ft 362 kts 141°
2026-05-05 08:19 51.37960 6.59808 15490 ft 365 kts 142°
2026-05-05 08:19 51.35944 6.62309 16270 ft 369 kts 142°
2026-05-05 08:19 51.33908 6.64832 17046 ft 373 kts 142°
2026-05-05 08:20 51.31849 6.67379 17800 ft 376 kts 142°
2026-05-05 08:20 51.29905 6.69782 18427 ft 381 kts 143°
2026-05-05 08:20 51.27795 6.72389 19070 ft 385 kts 143°
2026-05-05 08:20 51.25790 6.74862 19673 ft 388 kts 143°
2026-05-05 08:21 51.23638 6.77511 20343 ft 392 kts 143°
2026-05-05 08:21 51.21469 6.80180 21009 ft 396 kts 143°
2026-05-05 08:21 51.20151 6.81800 21389 ft 398 kts 143°
2026-05-05 08:21 51.18043 6.84388 21985 ft 401 kts 144°
2026-05-05 08:22 51.15825 6.87109 22616 ft 405 kts 144°
2026-05-05 08:22 51.13653 6.89768 23218 ft 408 kts 144°
2026-05-05 08:22 51.11390 6.92535 23779 ft 412 kts 144°
2026-05-05 08:22 51.09110 6.95321 24345 ft 414 kts 144°
2026-05-05 08:23 51.06823 6.98113 24876 ft 416 kts 144°
2026-05-05 08:23 51.04574 7.00856 25393 ft 418 kts 145°
2026-05-05 08:23 51.02260 7.03673 25917 ft 421 kts 145°
2026-05-05 08:23 51.00032 7.06381 26400 ft 423 kts 145°
2026-05-05 08:24 50.97684 7.09232 26886 ft 426 kts 145°
2026-05-05 08:24 50.95329 7.12085 27362 ft 428 kts 146°
2026-05-05 08:24 50.92948 7.14967 27826 ft 431 kts 146°
2026-05-05 08:24 50.90557 7.17857 28269 ft 433 kts 146°
2026-05-05 08:25 50.88170 7.20739 28696 ft 436 kts 146°
2026-05-05 08:25 50.85788 7.23610 29107 ft 438 kts 146°
2026-05-05 08:25 50.83359 7.26534 29498 ft 441 kts 146°
2026-05-05 08:25 50.80927 7.29458 29893 ft 443 kts 146°
2026-05-05 08:26 50.78449 7.32434 30250 ft 446 kts 147°
2026-05-05 08:26 50.75969 7.35407 30610 ft 448 kts 147°
2026-05-05 08:26 50.73481 7.38388 30948 ft 450 kts 147°
2026-05-05 08:26 50.70984 7.41374 31373 ft 450 kts 147°
2026-05-05 08:27 50.68487 7.44359 31852 ft 449 kts 147°
2026-05-05 08:27 50.66048 7.47271 32329 ft 447 kts 148°
2026-05-05 08:27 50.63612 7.50175 32783 ft 446 kts 148°
2026-05-05 08:27 50.61145 7.53112 33250 ft 444 kts 148°
2026-05-05 08:28 50.58688 7.56032 33690 ft 442 kts 149°
2026-05-05 08:28 50.56240 7.58936 33959 ft 439 kts 149°
2026-05-05 08:28 50.53805 7.61820 34193 ft 438 kts 149°
2026-05-05 08:28 50.51368 7.64701 34433 ft 438 kts 149°
2026-05-05 08:29 50.48931 7.67579 34674 ft 438 kts 148°
2026-05-05 08:29 50.46497 7.70451 34848 ft 438 kts 148°
2026-05-05 08:30 50.39228 7.79004 34877 ft 435 kts 149°
2026-05-05 08:30 50.35986 7.82805 34877 ft 435 kts 149°
2026-05-05 08:31 50.32012 7.87458 34875 ft 435 kts 149°
2026-05-05 08:31 50.27169 7.93114 34876 ft 434 kts 149°
2026-05-05 08:32 50.22336 7.98744 34878 ft 433 kts 149°
2026-05-05 08:32 50.18321 8.03411 34878 ft 432 kts 149°
2026-05-05 08:33 50.14620 8.07704 34879 ft 432 kts 149°
2026-05-05 08:33 50.09797 8.13286 34885 ft 431 kts 149°
2026-05-05 08:34 50.04984 8.18842 34884 ft 431 kts 149°
2026-05-05 08:34 50.00242 8.24303 34884 ft 431 kts 149°
2026-05-05 08:35 49.95427 8.29833 34881 ft 431 kts 149°
2026-05-05 08:35 49.90606 8.35357 34872 ft 430 kts 149°
2026-05-05 08:36 49.85784 8.40876 34873 ft 431 kts 148°
2026-05-05 08:36 49.81270 8.47105 34864 ft 436 kts 142°
2026-05-05 08:37 49.76864 8.53564 34865 ft 436 kts 142°
2026-05-05 08:37 49.72132 8.59244 34865 ft 426 kts 156°
2026-05-05 08:38 49.66688 8.62347 34868 ft 416 kts 173°
2026-05-05 08:38 49.61021 8.63891 34875 ft 415 kts 174°
2026-05-05 08:39 49.55326 8.65469 34883 ft 416 kts 174°
2026-05-05 08:39 49.49626 8.67061 34890 ft 417 kts 172°
2026-05-05 08:40 49.44038 8.69621 34883 ft 422 kts 162°
2026-05-05 08:40 49.38675 8.73350 34880 ft 423 kts 160°
2026-05-05 08:41 49.33321 8.77096 34873 ft 423 kts 160°
2026-05-05 08:41 49.28026 8.80767 34870 ft 424 kts 160°
2026-05-05 08:42 49.22652 8.84482 34869 ft 423 kts 160°
2026-05-05 08:42 49.17286 8.88182 34865 ft 423 kts 160°
2026-05-05 08:43 49.11969 8.91841 34864 ft 423 kts 160°
2026-05-05 08:43 49.06598 8.95527 34861 ft 423 kts 160°
2026-05-05 08:44 49.01237 8.99199 34861 ft 423 kts 160°
2026-05-05 08:44 48.95861 9.02871 34863 ft 423 kts 160°
2026-05-05 08:45 48.90499 9.06525 34869 ft 423 kts 160°
2026-05-05 08:45 48.85131 9.10175 34882 ft 422 kts 160°
2026-05-05 08:46 48.79759 9.13819 34881 ft 422 kts 160°
2026-05-05 08:46 48.74398 9.17447 34890 ft 422 kts 160°
2026-05-05 08:47 48.69034 9.21069 34894 ft 422 kts 160°
2026-05-05 08:47 48.63750 9.24628 34903 ft 422 kts 160°
2026-05-05 08:48 48.58324 9.27898 34898 ft 419 kts 164°
2026-05-05 08:48 48.52847 9.30953 34892 ft 419 kts 163°
2026-05-05 08:49 48.47382 9.34006 34884 ft 418 kts 163°
2026-05-05 08:49 48.41927 9.37046 34876 ft 418 kts 163°
2026-05-05 08:50 48.36482 9.40074 34867 ft 416 kts 163°
2026-05-05 08:50 48.31106 9.43057 34854 ft 415 kts 163°
2026-05-05 08:51 48.25824 9.46706 34854 ft 420 kts 154°
2026-05-05 08:51 48.21047 9.51852 34853 ft 427 kts 143°
2026-05-05 08:52 48.16578 9.57710 34864 ft 427 kts 144°
2026-05-05 08:52 48.12195 9.63396 34416 ft 424 kts 144°
2026-05-05 08:52 48.09971 9.66269 33878 ft 422 kts 144°
2026-05-05 08:53 48.08499 9.68164 33394 ft 422 kts 144°
2026-05-05 08:53 48.07278 9.69734 32895 ft 423 kts 144°
2026-05-05 08:53 48.05278 9.72302 32024 ft 428 kts 143°
2026-05-05 08:54 48.03032 9.75181 31074 ft 433 kts 143°
2026-05-05 08:54 48.00738 9.78122 30116 ft 438 kts 143°
2026-05-05 08:54 47.98399 9.81121 29329 ft 436 kts 142°
2026-05-05 08:54 47.96136 9.84024 28703 ft 431 kts 142°
2026-05-05 08:55 47.93871 9.86925 28057 ft 427 kts 142°
2026-05-05 08:55 47.91626 9.89793 27401 ft 423 kts 142°
2026-05-05 08:55 47.89377 9.92663 26765 ft 419 kts 142°
2026-05-05 08:55 47.87164 9.95481 26140 ft 416 kts 142°
2026-05-05 08:56 47.84998 9.98236 25530 ft 412 kts 142°
2026-05-05 08:56 47.83542 10.00039 25134 ft 409 kts 145°
2026-05-05 08:56 47.81272 10.02560 24541 ft 406 kts 146°
2026-05-05 08:56 47.79020 10.05054 23953 ft 403 kts 146°
2026-05-05 08:57 47.76783 10.07537 23356 ft 400 kts 146°
2026-05-05 08:57 47.74561 10.10002 22738 ft 396 kts 146°
2026-05-05 08:57 47.72368 10.12434 22124 ft 391 kts 146°
2026-05-05 08:57 47.70198 10.14835 21554 ft 387 kts 146°
2026-05-05 08:58 47.68052 10.17207 20979 ft 383 kts 146°
2026-05-05 08:58 47.65938 10.19541 20407 ft 379 kts 146°
2026-05-05 08:58 47.63830 10.21865 19866 ft 375 kts 146°
2026-05-05 08:58 47.61745 10.24161 19330 ft 371 kts 146°
2026-05-05 08:59 47.59685 10.26428 18797 ft 367 kts 146°
2026-05-05 08:59 47.57646 10.28669 18290 ft 363 kts 145°
2026-05-05 08:59 47.55625 10.30890 17709 ft 360 kts 146°
2026-05-05 08:59 47.53618 10.33093 17103 ft 358 kts 145°
2026-05-05 09:00 47.51635 10.35264 16484 ft 355 kts 145°
2026-05-05 09:00 47.49650 10.37437 15911 ft 354 kts 145°
2026-05-05 09:00 47.47680 10.39593 15344 ft 352 kts 145°
2026-05-05 09:00 47.45785 10.41665 14838 ft 351 kts 145°
2026-05-05 09:01 47.43820 10.43806 14320 ft 349 kts 145°
2026-05-05 09:01 47.41883 10.45919 13968 ft 342 kts 145°
2026-05-05 09:01 47.39988 10.47926 13723 ft 331 kts 149°
2026-05-05 09:01 47.38011 10.49573 13469 ft 321 kts 153°
2026-05-05 09:02 47.36064 10.51112 13199 ft 313 kts 153°
2026-05-05 09:02 47.34176 10.52608 13012 ft 303 kts 153°
2026-05-05 09:02 47.32367 10.54045 12980 ft 288 kts 153°
2026-05-05 09:02 47.30699 10.55376 12985 ft 270 kts 153°
2026-05-05 09:03 47.29316 10.57098 12988 ft 255 kts 127°
2026-05-05 09:03 47.28709 10.59447 12976 ft 242 kts 97°
2026-05-05 09:03 47.28810 10.61851 13022 ft 232 kts 89°
2026-05-05 09:03 47.28944 10.64258 12989 ft 237 kts 89°
2026-05-05 09:04 47.29063 10.66678 12802 ft 234 kts 89°
2026-05-05 09:04 47.29179 10.69048 12424 ft 230 kts 89°
2026-05-05 09:04 47.29298 10.71383 12063 ft 227 kts 88°
2026-05-05 09:04 47.29425 10.73672 11692 ft 222 kts 89°
2026-05-05 09:05 47.29538 10.75931 11340 ft 221 kts 89°
2026-05-05 09:05 47.29643 10.78190 10997 ft 220 kts 90°
2026-05-05 09:05 47.29753 10.80424 10645 ft 217 kts 89°
2026-05-05 09:05 47.29864 10.82620 10315 ft 213 kts 89°
2026-05-05 09:06 47.29974 10.84779 10008 ft 211 kts 89°
2026-05-05 09:06 47.30045 10.86203 9787 ft 210 kts 89°
2026-05-05 09:06 47.30110 10.87517 9557 ft 207 kts 89°
2026-05-05 09:06 47.30211 10.89606 9205 ft 201 kts 89°
2026-05-05 09:07 47.30310 10.91643 8907 ft 199 kts 88°
2026-05-05 09:07 47.30411 10.93685 8561 ft 199 kts 89°
2026-05-05 09:07 47.30507 10.95700 8241 ft 196 kts 88°
2026-05-05 09:07 47.30601 10.97679 7981 ft 198 kts 88°
2026-05-05 09:08 47.30698 10.99750 7647 ft 202 kts 88°
2026-05-05 09:08 47.30794 11.01809 7307 ft 200 kts 88°
2026-05-05 09:08 47.30892 11.03838 6995 ft 197 kts 88°
2026-05-05 09:08 47.30978 11.05840 6709 ft 195 kts 91°
2026-05-05 09:09 47.30796 11.07816 6432 ft 196 kts 108°
2026-05-05 09:09 47.30278 11.09662 6110 ft 196 kts 116°
2026-05-05 09:09 47.29679 11.11464 5746 ft 196 kts 117°
2026-05-05 09:09 47.29072 11.13253 5441 ft 194 kts 116°
2026-05-05 09:10 47.28496 11.14991 5143 ft 188 kts 117°
2026-05-05 09:10 47.27917 11.16718 4875 ft 184 kts 117°
2026-05-05 09:10 47.27359 11.18379 4601 ft 179 kts 117°
2026-05-05 09:10 47.26835 11.19978 4241 ft 171 kts 117°
2026-05-05 09:11 47.26340 11.21480 3958 ft 153 kts 117°
2026-05-05 09:11 47.25900 11.22819 3710 ft 140 kts 117°
2026-05-05 09:11 47.25482 11.24076 3525 ft 139 kts 117°
2026-05-05 09:11 47.25194 11.25394 3277 ft 132 kts 100°
2026-05-05 09:12 47.25165 11.26718 3002 ft 137 kts 85°
2026-05-05 09:12 47.25334 11.28106 2800 ft 139 kts 82°
2026-05-05 09:12 47.25500 11.29511 2543 ft 139 kts 84°
2026-05-05 09:12 47.25640 11.30895 2333 ft 135 kts 85°
2026-05-05 09:13 47.25789 11.32230 2119 ft 131 kts 85°
2026-05-05 09:13 47.25930 11.33535 1912 ft 123 kts 84°
2026-05-05 09:13 47.26022 11.34456 1907 ft 67 kts 79°
2026-05-05 09:13 47.26084 11.34998 1904 ft 47 kts 81°
2026-05-05 09:14 47.26109 11.35213 1908 ft 11 kts 83°
2026-05-05 09:14 47.26070 11.35257 1909 ft 8 kts 169°
2026-05-05 09:14 47.26003 11.35272 1904 ft 11 kts 171°
2026-05-05 09:14 47.25939 11.35287 1911 ft 9 kts 171°
2026-05-05 09:15 47.25899 11.35235 1913 ft 10 kts 263°
2026-05-05 09:15 47.25880 11.35156 1910 ft 3 kts 197°
2026-05-05 09:15 47.25855 11.35164 1910 ft 5 kts 171°
2026-05-05 09:15 47.25839 11.35168 1912 ft 1 kts 171°
2026-05-05 09:16 47.25834 11.35169 1903 ft 0 kts 171°